Weather History for Angleton, TX

Change the Weather History Date:

Sunday, July 14, 2013

  Actual Average Record
Temperature  
Mean Temperature 83 °F -  
Max Temperature 91 °F 89 °F 99 °F (2000)
Min Temperature 75 °F 72 °F 71 °F (2002)
Cooling Degree Days 18    
Growing Degree Days 33 (Base 50)    
Moisture  
Dew Point 73 °F    
Average Humidity 72    
Maximum Humidity 94    
Minimum Humidity 53    
Precipitation  
Precipitation 0.00 in - - ()
Sea Level Pressure  
Sea Level Pressure 29.91 in    
Wind  
Wind Speed 3 mph (SSE)    
Max Wind Speed 14 mph    
Max Gust Speed 18 mph    
Visibility 10 miles    
Events Thunderstorm    
Averages and records for this station are not official NWS values.
T = Trace of Precipitation, MM = Missing Value Source: NWS Daily Summary

Daily Weather History Graph

Daily Weather History Graph

Search for Another Location

Airport:

Trip Planner

Search our weather history database for the weather conditions in past years. The results will help you decide how hot, cold, wet, or windy it might be!

Date:

Astronomy

Jul. 14, 2013 Rise Set
Actual Time 6:32 AM CDT 8:22 PM CDT
Civil Twilight 6:05 AM CDT 8:49 PM CDT
Nautical Twilight 5:33 AM CDT 9:21 PM CDT
Astronomical Twilight 4:59 AM CDT 9:55 PM CDT
Moon 12:16 PM CDT (7/14) No Moon Set
Length of Visible Light 14h 43m
Length of Day
13h 50m
Waxing Crescent, 35% of the Moon is Illuminated
Jul 14
Waxing Crescent
Jul 15
First Quarter
Jul 22
Full
Jul 29
Last Quarter
Aug 6
New

Hourly Weather History & Observations

Time (CDT) Temp. Heat Index Dew Point Humidity Pressure Visibility Wind Dir Wind Speed Gust Speed Precip Events Conditions
12:53 AM 79.0 °F - 73.9 °F 84% 29.91 in 10.0 mi Calm Calm - N/A   Overcast
1:53 AM 78.1 °F - 73.9 °F 87% 29.90 in 10.0 mi Calm Calm - N/A   Scattered Clouds
2:53 AM 79.0 °F - 75.0 °F 88% 29.89 in 10.0 mi Calm Calm - N/A   Mostly Cloudy
3:53 AM 79.0 °F - 75.0 °F 88% 29.89 in 10.0 mi Calm Calm - N/A   Partly Cloudy
4:53 AM 77.0 °F - 73.9 °F 90% 29.88 in 10.0 mi Calm Calm - N/A   Partly Cloudy
5:53 AM 75.9 °F - 73.9 °F 94% 29.89 in 10.0 mi Calm Calm - N/A   Scattered Clouds
6:53 AM 75.9 °F - 73.9 °F 94% 29.91 in 10.0 mi Calm Calm - N/A   Mostly Cloudy
7:53 AM 79.0 °F - 75.9 °F 90% 29.91 in 10.0 mi Calm Calm - N/A   Partly Cloudy
8:53 AM 84.0 °F 91.9 °F 75.0 °F 74% 29.92 in 10.0 mi SW 5.8 mph - N/A   Partly Cloudy
9:53 AM 87.1 °F 95.4 °F 73.9 °F 65% 29.92 in 10.0 mi South 3.5 mph - N/A   Partly Cloudy
10:53 AM 87.1 °F 93.6 °F 72.0 °F 61% 29.92 in 10.0 mi Calm Calm - N/A   Scattered Clouds
11:53 AM 88.0 °F 95.6 °F 73.0 °F 61% 29.94 in 10.0 mi Variable 3.5 mph - N/A   Partly Cloudy
12:36 PM 89.6 °F 96.2 °F 71.6 °F 55% 29.95 in 10.0 mi West 3.5 mph - N/A Thunderstorm Clear
12:53 PM 89.1 °F 96.0 °F 72.0 °F 57% 29.95 in 10.0 mi NW 3.5 mph - N/A Thunderstorm Mostly Cloudy
1:51 PM 80.6 °F 83.2 °F 68.0 °F 65% 29.94 in 10.0 mi SE 9.2 mph - N/A   Clear
1:53 PM 80.1 °F 82.3 °F 66.9 °F 64% 29.94 in 10.0 mi SSE 11.5 mph - N/A   Clear
2:53 PM 86.0 °F 89.4 °F 68.0 °F 55% 29.92 in 10.0 mi SE 5.8 mph - N/A   Clear
3:53 PM 91.0 °F 98.2 °F 72.0 °F 53% 29.90 in 10.0 mi SSE 12.7 mph - N/A   Clear
4:53 PM 90.0 °F 96.4 °F 71.1 °F 54% 29.88 in 10.0 mi SSE 12.7 mph 18.4 mph N/A   Clear
5:53 PM 87.1 °F 93.6 °F 72.0 °F 61% 29.88 in 10.0 mi SSE 13.8 mph - N/A   Clear
6:53 PM 84.9 °F 90.7 °F 72.0 °F 65% 29.88 in 10.0 mi SSE 6.9 mph - N/A   Clear
7:53 PM 82.9 °F 88.8 °F 73.0 °F 72% 29.89 in 10.0 mi SSE 6.9 mph - N/A   Clear
8:53 PM 82.0 °F 88.6 °F 75.0 °F 79% 29.92 in 10.0 mi South 3.5 mph - N/A   Clear
9:53 PM 82.0 °F 87.9 °F 73.9 °F 76% 29.93 in 10.0 mi Calm Calm - N/A   Clear
10:53 PM 81.0 °F 86.2 °F 73.9 °F 79% 29.91 in 10.0 mi SE 5.8 mph - N/A   Clear
11:53 PM 82.0 °F 87.4 °F 73.0 °F 74% 29.90 in 10.0 mi SSE 9.2 mph - N/A   Clear